Time,TemperatureF,DewpointF,PressureIn,WindDirection,WindDirectionDegrees,WindSpeedMPH,WindSpeedGustMPH,Humidity,HourlyPrecipIn,Conditions,Clouds,dailyrainin,SoftwareType,DateUTC
2013-02-01 00:01:00,35.0,35.0,-100.00,NNE,30,4.0,12.0,99,-99.99,,,-99.99,,2013-02-01 09:01:00,
2013-02-01 00:11:00,35.0,35.0,-100.00,NNE,30,4.0,12.0,99,-99.99,,,-99.99,,2013-02-01 09:11:00,
2013-02-01 00:21:00,35.0,35.0,-100.00,North,5,7.0,14.0,98,-99.99,,,-99.99,,2013-02-01 09:21:00,
2013-02-01 00:32:00,35.0,35.0,-100.00,North,5,7.0,14.0,98,-99.99,,,-99.99,,2013-02-01 09:32:00,
2013-02-01 00:41:00,35.0,35.0,-100.00,North,5,7.0,14.0,98,-99.99,,,-99.99,,2013-02-01 09:41:00,
2013-02-01 00:51:00,35.0,35.0,-100.00,North,10,10.0,19.0,97,-99.99,,,-99.99,,2013-02-01 09:51:00,
2013-02-01 01:01:00,35.0,35.0,-100.00,North,10,10.0,19.0,97,-99.99,,,-99.99,,2013-02-01 10:01:00,
2013-02-01 01:11:00,35.0,35.0,-100.00,North,10,10.0,19.0,97,-99.99,,,-99.99,,2013-02-01 10:11:00,
2013-02-01 01:21:00,35.0,35.0,-100.00,North,5,7.0,21.0,97,-99.99,,,-99.99,,2013-02-01 10:21:00,
2013-02-01 01:31:00,35.0,35.0,-100.00,North,5,7.0,21.0,97,-99.99,,,-99.99,,2013-02-01 10:31:00,
2013-02-01 01:42:00,35.0,35.0,-100.00,North,5,7.0,21.0,97,-99.99,,,-99.99,,2013-02-01 10:42:00,
2013-02-01 01:52:00,35.0,34.0,-100.00,North,0,9.0,17.0,97,-99.99,,,-99.99,,2013-02-01 10:52:00,
2013-02-01 02:01:00,35.0,34.0,-100.00,North,0,9.0,17.0,97,-99.99,,,-99.99,,2013-02-01 11:01:00,
2013-02-01 02:11:00,35.0,34.0,-100.00,North,0,9.0,17.0,97,-99.99,,,-99.99,,2013-02-01 11:11:00,
2013-02-01 02:21:00,34.0,34.0,-100.00,North,0,11.0,17.0,97,-99.99,,,-99.99,,2013-02-01 11:21:00,
2013-02-01 02:32:00,34.0,34.0,-100.00,North,0,11.0,17.0,97,-99.99,,,-99.99,,2013-02-01 11:32:00,
2013-02-01 02:41:00,34.0,34.0,-100.00,North,0,11.0,17.0,97,-99.99,,,-99.99,,2013-02-01 11:41:00,
2013-02-01 02:53:00,34.0,33.0,-100.00,North,0,11.0,19.0,97,-99.99,,,-99.99,,2013-02-01 11:53:00,
2013-02-01 03:02:00,34.0,33.0,-100.00,North,0,11.0,19.0,97,-99.99,,,-99.99,,2013-02-01 12:02:00,
2013-02-01 03:12:00,34.0,33.0,-100.00,North,0,11.0,19.0,97,-99.99,,,-99.99,,2013-02-01 12:12:00,
2013-02-01 03:22:00,34.0,33.0,-100.00,North,5,11.0,19.0,97,-99.99,,,-99.99,,2013-02-01 12:22:00,
2013-02-01 03:32:00,34.0,33.0,-100.00,North,5,11.0,19.0,97,-99.99,,,-99.99,,2013-02-01 12:32:00,
2013-02-01 03:42:00,34.0,33.0,-100.00,North,5,11.0,19.0,97,-99.99,,,-99.99,,2013-02-01 12:42:00,
2013-02-01 03:52:00,34.0,34.0,-100.00,North,10,10.0,21.0,98,-99.99,,,-99.99,,2013-02-01 12:52:00,
2013-02-01 04:02:00,34.0,34.0,-100.00,North,10,10.0,21.0,98,-99.99,,,-99.99,,2013-02-01 13:02:00,
2013-02-01 04:11:00,34.0,34.0,-100.00,North,10,10.0,21.0,98,-99.99,,,-99.99,,2013-02-01 13:11:00,
2013-02-01 04:21:00,35.0,35.0,-100.00,North,5,9.0,16.0,98,-99.99,,,-99.99,,2013-02-01 13:21:00,
2013-02-01 04:32:00,35.0,35.0,-100.00,North,5,9.0,16.0,98,-99.99,,,-99.99,,2013-02-01 13:32:00,
2013-02-01 04:42:00,35.0,35.0,-100.00,North,5,9.0,16.0,98,-99.99,,,-99.99,,2013-02-01 13:42:00,
2013-02-01 04:52:00,35.0,34.0,-100.00,North,0,11.0,19.0,98,-99.99,,,-99.99,,2013-02-01 13:52:00,
2013-02-01 05:03:00,35.0,34.0,-100.00,North,0,11.0,19.0,98,-99.99,,,-99.99,,2013-02-01 14:03:00,
2013-02-01 05:11:00,35.0,34.0,-100.00,North,0,11.0,19.0,98,-99.99,,,-99.99,,2013-02-01 14:11:00,
2013-02-01 05:21:00,35.0,35.0,-100.00,North,0,11.0,20.0,98,-99.99,,,-99.99,,2013-02-01 14:21:00,
2013-02-01 05:32:00,35.0,35.0,-100.00,North,0,11.0,20.0,98,-99.99,,,-99.99,,2013-02-01 14:32:00,
2013-02-01 05:42:00,35.0,35.0,-100.00,North,0,11.0,20.0,98,-99.99,,,-99.99,,2013-02-01 14:42:00,
2013-02-01 05:52:00,35.0,34.0,-100.00,North,0,10.0,17.0,98,-99.99,,,-99.99,,2013-02-01 14:52:00,
2013-02-01 06:02:00,35.0,34.0,-100.00,North,0,10.0,17.0,98,-99.99,,,-99.99,,2013-02-01 15:02:00,
2013-02-01 06:12:00,35.0,34.0,-100.00,North,0,10.0,17.0,98,-99.99,,,-99.99,,2013-02-01 15:12:00,
2013-02-01 06:21:00,35.0,35.0,-100.00,North,5,7.0,16.0,98,-99.99,,,-99.99,,2013-02-01 15:21:00,
2013-02-01 06:32:00,35.0,35.0,-100.00,North,5,7.0,16.0,98,-99.99,,,-99.99,,2013-02-01 15:32:00,
2013-02-01 06:42:00,35.0,35.0,-100.00,North,5,7.0,16.0,98,-99.99,,,-99.99,,2013-02-01 15:42:00,
2013-02-01 06:51:00,36.0,35.0,-100.00,North,0,4.0,8.0,98,-99.99,,,-99.99,,2013-02-01 15:51:00,
2013-02-01 07:02:00,36.0,35.0,-100.00,North,0,4.0,8.0,98,-99.99,,,-99.99,,2013-02-01 16:02:00,
2013-02-01 07:11:00,36.0,35.0,-100.00,North,0,4.0,8.0,98,-99.99,,,-99.99,,2013-02-01 16:11:00,
2013-02-01 07:21:00,36.0,36.0,-100.00,North,0,2.0,7.0,97,-99.99,,,-99.99,,2013-02-01 16:21:00,
2013-02-01 07:32:00,36.0,36.0,-100.00,North,0,2.0,7.0,97,-99.99,,,-99.99,,2013-02-01 16:32:00,
2013-02-01 07:42:00,36.0,36.0,-100.00,North,0,2.0,7.0,97,-99.99,,,-99.99,,2013-02-01 16:42:00,
2013-02-01 07:52:00,37.0,36.0,-100.00,North,5,4.0,13.0,96,-99.99,,,-99.99,,2013-02-01 16:52:00,
2013-02-01 08:02:00,37.0,36.0,-100.00,North,5,4.0,13.0,96,-99.99,,,-99.99,,2013-02-01 17:02:00,
2013-02-01 08:11:00,37.0,36.0,-100.00,North,5,4.0,13.0,96,-99.99,,,-99.99,,2013-02-01 17:11:00,
2013-02-01 08:22:00,38.0,37.0,-100.00,North,5,2.0,10.0,96,-99.99,,,-99.99,,2013-02-01 17:22:00,
2013-02-01 08:32:00,38.0,37.0,-100.00,North,5,2.0,10.0,96,-99.99,,,-99.99,,2013-02-01 17:32:00,
2013-02-01 08:42:00,38.0,37.0,-100.00,North,5,2.0,10.0,96,-99.99,,,-99.99,,2013-02-01 17:42:00,
2013-02-01 08:52:00,39.0,38.0,-100.00,NE,40,12.0,21.0,97,-99.99,,,-99.99,,2013-02-01 17:52:00,
2013-02-01 09:02:00,39.0,38.0,-100.00,NE,40,12.0,21.0,97,-99.99,,,-99.99,,2013-02-01 18:02:00,
2013-02-01 09:12:00,39.0,38.0,-100.00,NE,40,12.0,21.0,97,-99.99,,,-99.99,,2013-02-01 18:12:00,
2013-02-01 09:22:00,39.0,38.0,-100.00,East,100,7.0,17.0,97,-99.99,,,-99.99,,2013-02-01 18:22:00,
2013-02-01 09:32:00,39.0,38.0,-100.00,East,100,7.0,17.0,97,-99.99,,,-99.99,,2013-02-01 18:32:00,
2013-02-01 09:42:00,39.0,38.0,-100.00,East,100,7.0,17.0,97,-99.99,,,-99.99,,2013-02-01 18:42:00,
2013-02-01 09:52:00,39.0,38.0,-100.00,SSE,160,5.0,15.0,96,-99.99,,,-99.99,,2013-02-01 18:52:00,
2013-02-01 10:02:00,39.0,38.0,-100.00,SSE,160,5.0,15.0,96,-99.99,,,-99.99,,2013-02-01 19:02:00,
2013-02-01 10:11:00,39.0,38.0,-100.00,SSE,160,5.0,15.0,96,-99.99,,,-99.99,,2013-02-01 19:11:00,
2013-02-01 10:21:00,39.0,38.0,-100.00,SSE,160,4.0,15.0,96,-99.99,,,-99.99,,2013-02-01 19:21:00,
2013-02-01 10:32:00,39.0,38.0,-100.00,SSE,160,4.0,15.0,96,-99.99,,,-99.99,,2013-02-01 19:32:00,
2013-02-01 10:41:00,39.0,38.0,-100.00,SSE,160,4.0,15.0,96,-99.99,,,-99.99,,2013-02-01 19:41:00,
2013-02-01 10:51:00,39.0,38.0,-100.00,SSE,165,3.0,7.0,96,-99.99,,,-99.99,,2013-02-01 19:51:00,
2013-02-01 11:02:00,39.0,38.0,-100.00,SSE,165,3.0,7.0,96,-99.99,,,-99.99,,2013-02-01 20:02:00,
2013-02-01 11:11:00,39.0,38.0,-100.00,SSE,165,3.0,7.0,96,-99.99,,,-99.99,,2013-02-01 20:11:00,
2013-02-01 11:21:00,39.0,38.0,-100.00,East,80,4.0,10.0,96,-99.99,,,-99.99,,2013-02-01 20:21:00,
2013-02-01 11:31:00,39.0,38.0,-100.00,East,80,4.0,10.0,96,-99.99,,,-99.99,,2013-02-01 20:31:00,
2013-02-01 11:41:00,39.0,38.0,-100.00,East,80,4.0,10.0,96,-99.99,,,-99.99,,2013-02-01 20:41:00,
2013-02-01 11:52:00,39.0,38.0,-100.00,NE,35,7.0,16.0,96,-99.99,,,-99.99,,2013-02-01 20:52:00,
2013-02-01 12:01:00,39.0,38.0,-100.00,NE,35,7.0,16.0,96,-99.99,,,-99.99,,2013-02-01 21:01:00,
2013-02-01 12:11:00,39.0,38.0,-100.00,NE,35,7.0,16.0,96,-99.99,,,-99.99,,2013-02-01 21:11:00,
2013-02-01 12:21:00,39.0,38.0,-100.00,NNW,335,7.0,11.0,97,-99.99,,,-99.99,,2013-02-01 21:21:00,
2013-02-01 12:31:00,39.0,38.0,-100.00,NNW,335,7.0,11.0,97,-99.99,,,-99.99,,2013-02-01 21:31:00,
2013-02-01 12:41:00,39.0,38.0,-100.00,NNW,335,7.0,11.0,97,-99.99,,,-99.99,,2013-02-01 21:41:00,
2013-02-01 12:52:00,40.0,39.0,-100.00,NE,40,5.0,9.0,98,-99.99,,,-99.99,,2013-02-01 21:52:00,
2013-02-01 13:02:00,40.0,39.0,-100.00,NE,40,5.0,9.0,98,-99.99,,,-99.99,,2013-02-01 22:02:00,
2013-02-01 13:11:00,40.0,39.0,-100.00,NE,40,5.0,9.0,98,-99.99,,,-99.99,,2013-02-01 22:11:00,
2013-02-01 13:21:00,39.0,38.0,-100.00,NNW,335,6.0,10.0,98,-99.99,,,-99.99,,2013-02-01 22:21:00,
2013-02-01 13:32:00,39.0,38.0,-100.00,NNW,335,6.0,10.0,98,-99.99,,,-99.99,,2013-02-01 22:32:00,
2013-02-01 13:42:00,39.0,38.0,-100.00,NNW,335,6.0,10.0,98,-99.99,,,-99.99,,2013-02-01 22:42:00,
2013-02-01 13:51:00,39.0,39.0,-100.00,NNW,340,6.0,9.0,99,-99.99,,,-99.99,,2013-02-01 22:51:00,
2013-02-01 14:01:00,39.0,39.0,-100.00,NNW,340,6.0,9.0,99,-99.99,,,-99.99,,2013-02-01 23:01:00,
2013-02-01 14:11:00,39.0,39.0,-100.00,NNW,340,6.0,9.0,99,-99.99,,,-99.99,,2013-02-01 23:11:00,
2013-02-01 14:21:00,39.0,39.0,-100.00,NNW,340,3.0,7.0,99,-99.99,,,-99.99,,2013-02-01 23:21:00,
2013-02-01 14:31:00,39.0,39.0,-100.00,NNW,340,3.0,7.0,99,-99.99,,,-99.99,,2013-02-01 23:31:00,
2013-02-01 14:41:00,39.0,39.0,-100.00,NNW,340,3.0,7.0,99,-99.99,,,-99.99,,2013-02-01 23:41:00,
2013-02-01 14:52:00,39.0,39.0,-100.00,NNW,345,4.0,6.0,99,-99.99,,,-99.99,,2013-02-01 23:52:00,
2013-02-01 15:02:00,39.0,39.0,-100.00,NNW,345,4.0,6.0,99,-99.99,,,-99.99,,2013-02-02 00:02:00,
2013-02-01 15:11:00,39.0,39.0,-100.00,NNW,345,4.0,6.0,99,-99.99,,,-99.99,,2013-02-02 00:11:00,
2013-02-01 15:21:00,38.0,38.0,-100.00,NNW,335,3.0,7.0,99,-99.99,,,-99.99,,2013-02-02 00:21:00,
2013-02-01 15:32:00,38.0,38.0,-100.00,NNW,335,3.0,7.0,99,-99.99,,,-99.99,,2013-02-02 00:32:00,
2013-02-01 15:41:00,38.0,38.0,-100.00,NNW,335,3.0,7.0,99,-99.99,,,-99.99,,2013-02-02 00:41:00,
2013-02-01 15:52:00,38.0,38.0,-100.00,NNW,335,4.0,6.0,99,-99.99,,,-99.99,,2013-02-02 00:52:00,
2013-02-01 16:02:00,38.0,38.0,-100.00,NNW,335,4.0,6.0,99,-99.99,,,-99.99,,2013-02-02 01:02:00,
2013-02-01 16:11:00,38.0,38.0,-100.00,NNW,335,4.0,6.0,99,-99.99,,,-99.99,,2013-02-02 01:11:00,
2013-02-01 16:21:00,38.0,38.0,-100.00,WNW,290,1.0,2.0,99,-99.99,,,-99.99,,2013-02-02 01:21:00,
2013-02-01 16:32:00,38.0,38.0,-100.00,WNW,290,1.0,2.0,99,-99.99,,,-99.99,,2013-02-02 01:32:00,
2013-02-01 16:41:00,38.0,38.0,-100.00,WNW,290,1.0,2.0,99,-99.99,,,-99.99,,2013-02-02 01:41:00,
2013-02-01 16:52:00,38.0,38.0,-100.00,SW,230,0.0,1.0,99,-99.99,,,-99.99,,2013-02-02 01:52:00,
2013-02-01 17:01:00,38.0,38.0,-100.00,SW,230,0.0,1.0,99,-99.99,,,-99.99,,2013-02-02 02:01:00,
2013-02-01 17:11:00,38.0,38.0,-100.00,SW,230,0.0,1.0,99,-99.99,,,-99.99,,2013-02-02 02:11:00,
2013-02-01 17:21:00,38.0,38.0,-100.00,SSE,150,1.0,4.0,99,-99.99,,,-99.99,,2013-02-02 02:21:00,
2013-02-01 17:31:00,38.0,38.0,-100.00,SSE,150,1.0,4.0,99,-99.99,,,-99.99,,2013-02-02 02:31:00,
2013-02-01 17:41:00,38.0,38.0,-100.00,SSE,150,1.0,4.0,99,-99.99,,,-99.99,,2013-02-02 02:41:00,
2013-02-01 17:52:00,38.0,38.0,-100.00,NNE,20,1.0,2.0,99,-99.99,,,-99.99,,2013-02-02 02:52:00,
2013-02-01 18:02:00,38.0,38.0,-100.00,NNE,20,1.0,2.0,99,-99.99,,,-99.99,,2013-02-02 03:02:00,
2013-02-01 18:11:00,38.0,38.0,-100.00,NNE,20,1.0,2.0,99,-99.99,,,-99.99,,2013-02-02 03:11:00,
2013-02-01 18:21:00,38.0,37.0,-100.00,NNE,20,1.0,3.0,99,-99.99,,,-99.99,,2013-02-02 03:21:00,
2013-02-01 18:32:00,38.0,37.0,-100.00,NNE,20,1.0,3.0,99,-99.99,,,-99.99,,2013-02-02 03:32:00,
2013-02-01 18:42:00,38.0,37.0,-100.00,NNE,20,1.0,3.0,99,-99.99,,,-99.99,,2013-02-02 03:42:00,
2013-02-01 18:51:00,38.0,37.0,-100.00,NW,305,1.0,1.0,99,-99.99,,,-99.99,,2013-02-02 03:51:00,
2013-02-01 19:01:00,38.0,37.0,-100.00,NW,305,1.0,1.0,99,-99.99,,,-99.99,,2013-02-02 04:01:00,
2013-02-01 19:11:00,38.0,37.0,-100.00,NW,305,1.0,1.0,99,-99.99,,,-99.99,,2013-02-02 04:11:00,
2013-02-01 19:21:00,37.0,37.0,-100.00,South,175,0.0,1.0,99,-99.99,,,-99.99,,2013-02-02 04:21:00,
2013-02-01 19:32:00,37.0,37.0,-100.00,South,175,0.0,1.0,99,-99.99,,,-99.99,,2013-02-02 04:32:00,
2013-02-01 19:41:00,37.0,37.0,-100.00,South,175,0.0,1.0,99,-99.99,,,-99.99,,2013-02-02 04:41:00,
2013-02-01 19:51:00,37.0,37.0,-100.00,ESE,105,0.0,1.0,99,-99.99,,,-99.99,,2013-02-02 04:51:00,
2013-02-01 20:03:00,37.0,37.0,-100.00,ESE,105,0.0,1.0,99,-99.99,,,-99.99,,2013-02-02 05:03:00,
2013-02-01 20:11:00,37.0,37.0,-100.00,ESE,105,0.0,1.0,99,-99.99,,,-99.99,,2013-02-02 05:11:00,
2013-02-01 20:22:00,37.0,37.0,-100.00,ENE,60,0.0,1.0,99,-99.99,,,-99.99,,2013-02-02 05:22:00,
2013-02-01 20:33:00,37.0,37.0,-100.00,ENE,60,0.0,1.0,99,-99.99,,,-99.99,,2013-02-02 05:33:00,
2013-02-01 20:41:00,37.0,37.0,-100.00,ENE,60,0.0,1.0,99,-99.99,,,-99.99,,2013-02-02 05:41:00,
2013-02-01 20:52:00,36.0,36.0,-100.00,North,350,0.0,0.0,99,-99.99,,,-99.99,,2013-02-02 05:52:00,
2013-02-01 21:02:00,36.0,36.0,-100.00,North,350,0.0,0.0,99,-99.99,,,-99.99,,2013-02-02 06:02:00,
2013-02-01 21:12:00,36.0,36.0,-100.00,North,350,0.0,0.0,99,-99.99,,,-99.99,,2013-02-02 06:12:00,
2013-02-01 21:21:00,37.0,36.0,-100.00,West,265,1.0,2.0,99,-99.99,,,-99.99,,2013-02-02 06:21:00,
2013-02-01 21:31:00,37.0,36.0,-100.00,West,265,1.0,2.0,99,-99.99,,,-99.99,,2013-02-02 06:31:00,
2013-02-01 21:41:00,37.0,36.0,-100.00,West,265,1.0,2.0,99,-99.99,,,-99.99,,2013-02-02 06:41:00,
2013-02-01 21:51:00,37.0,37.0,-100.00,NW,325,1.0,2.0,99,-99.99,,,-99.99,,2013-02-02 06:51:00,
2013-02-01 22:02:00,37.0,37.0,-100.00,NW,325,1.0,2.0,99,-99.99,,,-99.99,,2013-02-02 07:02:00,
2013-02-01 22:11:00,37.0,37.0,-100.00,NW,325,1.0,2.0,99,-99.99,,,-99.99,,2013-02-02 07:11:00,
2013-02-01 22:21:00,37.0,37.0,-100.00,ENE,60,0.0,1.0,99,-99.99,,,-99.99,,2013-02-02 07:21:00,
2013-02-01 22:31:00,37.0,37.0,-100.00,ENE,60,0.0,1.0,99,-99.99,,,-99.99,,2013-02-02 07:31:00,
2013-02-01 22:41:00,37.0,37.0,-100.00,ENE,60,0.0,1.0,99,-99.99,,,-99.99,,2013-02-02 07:41:00,
2013-02-01 22:51:00,37.0,37.0,-100.00,NNW,340,0.0,2.0,99,-99.99,,,-99.99,,2013-02-02 07:51:00,
2013-02-01 23:01:00,37.0,37.0,-100.00,NNW,340,0.0,2.0,99,-99.99,,,-99.99,,2013-02-02 08:01:00,
2013-02-01 23:11:00,37.0,37.0,-100.00,NNW,340,0.0,2.0,99,-99.99,,,-99.99,,2013-02-02 08:11:00,
2013-02-01 23:21:00,37.0,37.0,-100.00,East,95,0.0,1.0,99,-99.99,,,-99.99,,2013-02-02 08:21:00,
2013-02-01 23:31:00,37.0,37.0,-100.00,East,95,0.0,1.0,99,-99.99,,,-99.99,,2013-02-02 08:31:00,
2013-02-01 23:41:00,37.0,37.0,-100.00,East,95,0.0,1.0,99,-99.99,,,-99.99,,2013-02-02 08:41:00,
2013-02-01 23:52:00,36.0,36.0,-100.00,NW,305,0.0,1.0,99,-99.99,,,-99.99,,2013-02-02 08:52:00,